Regional Weather Roundup
Issued by NWS Columbia, SC

Home | Current Version | Previous Version | Text Only | Print | Product List | Glossary On
Versions: 1 2 3 4 5 6 7 8 9 10 11 12 13 14 15 16 17 18 19 20 21 22 23 24 25 26 27 28
000
ASUS42 KCAE 301410
RWRCAE
REGIONAL WEATHER ROUNDUP
NATIONAL WEATHER SERVICE COLUMBIA SC
1000 AM EDT THU OCT 30 2014

NOTE: "FAIR" INDICATES FEW OR NO CLOUDS BELOW 12,000 FEET WITH NO
SIGNIFICANT WEATHER AND/OR OBSTRUCTIONS TO VISIBILITY.

NOT ALL STATIONS ARE QUALITY CONTROLLED BY THE NATIONAL
WEATHER SERVICE. USE DATA WITH CAUTION...ESPECIALLY
DEWPOINT OBSERVATIONS.

SCZ001>056-GAZ040-063>065-077-301500-
...UPSTATE SOUTH CAROLINA...

CITY           SKY/WX    TMP DP  RH WIND       PRES   REMARKS
ANDERSON       SUNNY     54  43  66 N6        30.09R
LIBERTY        FAIR      47  44  88 CALM      30.08S
SPARTANBURG    FAIR      57  39  51 N5        30.08S
CLEMSON        SUNNY     55  46  71 CALM      30.10R
GREENVILLE     SUNNY     56  38  50 NE7       30.09R
GREENWOOD      SUNNY     57  44  62 N7        30.09R
GREER          SUNNY     57  39  51 NE7       30.07S
ROCK HILL      SUNNY     59  43  55 NE9       30.08R


...CENTRAL SOUTH CAROLINA...

CITY           SKY/WX    TMP DP  RH WIND       PRES   REMARKS
COLUMBIA APT   MOSUNNY   62  44  51 N6        30.05R
COLUMBIA OWENS SUNNY     63  43  48 VRB3      30.06R
DARLINGTON     SUNNY     61  46  59 N12       30.06S
FLORENCE       SUNNY     61  49  64 NE12      30.03R
MCENTIRE ANGB  SUNNY     62  44  51 N8        30.05R
ORANGEBURG     SUNNY     63  45  51 NE12      30.03R
SUMTER SHAW    SUNNY     61  45  54 NE14      30.03R
NEWBERRY       FAIR      57  46  67 NE7       30.10R
AIKEN          FAIR      61  50  67 N12       30.08R
BARNWELL       FAIR      63  46  55 NE10      30.04S
MANNING        FAIR      63  52  67 N8        30.02S
CAMDEN         FAIR      59  43  55 N10       30.06R
LANCASTER      FAIR      59  43  55 NE7       30.07S
WINNSBORO      FAIR      59  43  55 N7        30.06R


...EASTERN AND COASTAL SOUTH CAROLINA...

CITY           SKY/WX    TMP DP  RH WIND       PRES   REMARKS
MYRTLE BEACH   CLOUDY    59  54  82 N12       30.00R
N MYRTLE BCH   CLOUDY    59  55  87 N8        30.00R
CONWAY         CLOUDY    59  59 100 N6        30.02R FOG
MARION         FAIR      61  52  72 N12       30.03R
FLORENCE       SUNNY     61  49  64 NE12      30.03R
DARLINGTON     SUNNY     61  46  59 N12       30.06S
CHARLESTON APT MOSUNNY   65  52  62 NE10      30.00S
WALTERBORO     SUNNY     64  50  59 NE9       30.02S
BEAUFORT       PTSUNNY   63  59  87 NE8       29.98


...EASTERN GEORGIA...

CITY           SKY/WX    TMP DP  RH WIND       PRES   REMARKS
AUGUSTA BUSH F SUNNY     61  47  59 N9        30.05R
AUGUSTA DANIEL SUNNY     61  46  57 N8        30.06R
THOMSON        SUNNY     58  53  82 N5        30.10S
WASHINGTON     FAIR      59  50  72 N6        30.08R
CLAXTON        PTSUNNY   61  57  88 CALM      30.02R
SYLVANIA       CLOUDY    67  59  75 NE7       30.03R
STATESBORO     CLOUDY    60  60 100 NE7       30.01F
SAVANNAH       CLOUDY    67  61  81 N6        30.00S


...SOUTHERN NORTH CAROLINA...

CITY           SKY/WX    TMP DP  RH WIND       PRES   REMARKS
CHARLOTTE      MOSUNNY   58  39  49 N9        30.08S
MONROE         SUNNY     59  40  49 N12       30.06S
WADESBORO      SUNNY     57  45  63 N3        30.07S
ROCKINGHAM     SUNNY     58  46  64 N6        30.05S
RUTHERFORDTON  SUNNY     54  42  63 CALM      30.10S
ASHEVILLE      SUNNY     48  38  68 N8        30.11R

$$



USA.gov is the U.S. government's official web portal to all federal, state and local government web resources and services.